This is the latest recevied weather packets stored in our database for station/object SP9KB-13. If no packets are shown the sender has not sent any weather packets the latest 10 day(s).
| Time | Temp. | Humidity | Pressure | Rain* | Wind** | Luminosity | Snow |
|---|---|---|---|---|---|---|---|
| 1777922667 | 17.22° C | 39% | 996.1 hPa | 0 mm | - | - | - |
| 1777922367 | 17.22° C | 38% | 996 hPa | 0 mm | - | - | - |
| 1777922066 | 17.22° C | 39% | 996.1 hPa | 0 mm | - | - | - |
| 1777920864 | 16.67° C | 41% | 996 hPa | 0 mm | - | - | - |
| 1777920263 | 17.78° C | 39% | 996 hPa | 0 mm | - | - | - |
| 1777919961 | 17.78° C | 41% | 996 hPa | 0 mm | - | - | - |
| 1777919661 | 17.22° C | 39% | 996 hPa | 0 mm | - | - | - |
| 1777919060 | 17.78° C | 40% | 996 hPa | 0 mm | - | - | - |
| 1777918459 | 18.33° C | 37% | 995.8 hPa | 0 mm | - | - | - |
| 1777918158 | 18.33° C | 37% | 995.7 hPa | 0 mm | - | - | - |
| 1777917858 | 18.33° C | 37% | 995.6 hPa | 0 mm | - | - | - |
| 1777917557 | 18.89° C | 37% | 995.9 hPa | 0 mm | - | - | - |
| 1777916355 | 18.89° C | 35% | 995.9 hPa | 0 mm | - | - | - |
| 1777916054 | 18.89° C | 35% | 995.8 hPa | 0 mm | - | - | - |
| 1777915754 | 19.44° C | 34% | 995.6 hPa | 0 mm | - | - | - |
| 1777915153 | 20° C | 33% | 995.5 hPa | 0 mm | - | - | - |
| 1777914552 | 20° C | 32% | 995.2 hPa | 0 mm | - | - | - |
| 1777914251 | 20.56° C | 33% | 995.5 hPa | 0 mm | - | - | - |
| 1777913951 | 20.56° C | 31% | 995.2 hPa | 0 mm | - | - | - |
| 1777912748 | 21.67° C | 29% | 995.3 hPa | 0 mm | - | - | - |
| 1777912448 | 21.67° C | 29% | 995.4 hPa | 0 mm | - | - | - |
| 1777911546 | 21.67° C | 29% | 995.3 hPa | 0 mm | - | - | - |
| 1777910946 | 22.78° C | 28% | 995.6 hPa | 0 mm | - | - | - |
| 1777910645 | 23.33° C | 28% | 995.4 hPa | 0 mm | - | - | - |
| 1777910044 | 23.89° C | 27% | 995.3 hPa | 0 mm | - | - | - |
* Rain latest hour (hover to see other rain measurements)
** Current wind speed in m/s (hover to see current wind gust speed)